Regional Weather Roundup
Issued by NWS

Home | Current Version | Previous Version | Graphics & Text | Print | Product List | Glossary On
Versions: 1 2 3 4 5 6 7 8 9 10 11 12 13 14 15 16 17 18 19 20 21 22 23 24 25 26 27 28 29 30 31 32 33 34 35 36 37 38 39 40 41 42 43 44 45 46 47 48 49 50
000
ASUS45 KTFX 060704
RWRMT
MONTANA HOURLY WEATHER ROUNDUP
NATIONAL WEATHER SERVICE GREAT FALLS MT
1204 AM MST FRI MAR 6 2015

NOTE: "FAIR" INDICATES FEW OR NO CLOUDS BELOW 12000 FEET WITH NO
SIGNIFICANT WEATHER AND/OR OBSTRUCTIONS TO VISIBILITY.

* THESE STATIONS ARE NOT UNDER NWS QUALITY CONTROL. THEY DO NOT
   REPORT WEATHER SUCH AS PRECIPITATION OR FOG.

MTZ001>007-043-060800-
WEST OF THE DIVIDE
CITY           SKY/WX    TMP DP  RH WIND       PRES   REMARKS
KALISPELL      MOCLDY    27  21  78 CALM      30.30R
MISSOULA       PTCLDY    27  18  69 CALM      30.33R
BUTTE          MOCLDY    25  16  69 SE3       30.27S
MULLAN PASS    PTCLDY    28  14  56 VRB3      30.28S
* ANACONDA     MOCLDY    37  10  33 S3         N/A
* ESSEX        N/A       24  16  71 NE1        N/A
* LINCOLN      N/A       36  12  37 W4         N/A
* LOOKOUT PASS N/A       30  18  61 N2         N/A
* POLSON       N/A       33  16  50 S1         N/A
* RONAN APT    PTCLDY    32  27  82 N/A        N/A
* SEELEY LAKE  N/A       20  12  71 SE1        N/A
* THOMP F APT  PTCLDY    26  12  55 N5         N/A   WCI  20
$$

MTZ008-052>055-060800-
SOUTHWEST MONTANA
CITY           SKY/WX    TMP DP  RH WIND       PRES   REMARKS
BOZEMAN        PTCLDY    27  19  72 S3        30.25S
DILLON         MOCLDY    34  12  40 S13       30.28R WCI  25
* W YELLOWSTON CLEAR     14   8  77 N/A        N/A
* THREE FORKS  PTCLDY    36  16  44 SW8        N/A   WCI  30
* BOULDER HILL N/A       35   7  31 W4G9       N/A
* MONIDA PASS  N/A       22  11  62 SE12       N/A   WCI  10
* RAYNOLDS PAS N/A       18   1  47 SE12       N/A   WCI   5
* WHITEHALL    N/A       30   9  41 NW11       N/A   WCI  21
* WISE RIVER   N/A       30  11  45 S2G8       N/A
$$

MTZ009>010-012-014-046-048-049-054-060800-
EAST SLOPES AND CENTRAL MONTANA
CITY           SKY/WX    TMP DP  RH WIND       PRES   REMARKS
CUT BANK       PTCLDY    37  18  46 W22       30.07S WCI  26
GREAT FALLS    CLEAR     34  16  48 SW9       30.12S WCI  27
HELENA         MOCLDY    45  12  26 W16G25    30.21F
* DEARBORN     N/A       42  15  33 NW2G7      N/A
* EAST GLACIER N/A       36  15  42 W34        N/A   WCI  22
* MONARCH      N/A       34   6  31 SW14       N/A   WCI  24
* PENDROY      N/A       39  18  43 NW17G27    N/A   WCI  30
* ROGERS PASS  N/A       34  11  38 SE20G32    N/A   WCI  23
* SWEET GRASS  N/A       38  19  46 W20G27     N/A   WCI  28
$$

MTZ011-013-016-021-035-040-045-047-050-051-060800-
NORTH CENTRAL MONTANA
CITY           SKY/WX    TMP DP  RH WIND       PRES   REMARKS
HAVRE          MOCLDY    34  19  54 SW10      30.08S WCI  26
LEWISTOWN      CLEAR     34  18  52 W8        30.12S WCI  27
* N BAR RANCH  CLEAR     34  16  48 CALM      30.11S
* CHESTER      N/A       33  17  52 S4         N/A
* DENTON       N/A       35  19  52 SW12       N/A   WCI  27
* GEYSER       N/A       34  13  42 W13        N/A   WCI  25
* JUDITH GAP   N/A       32  14  47 VRB4       N/A
* LOMA         N/A       32  17  54 SW3        N/A
$$

MTZ017>020-022>027-061-062-060800-
NORTHEAST MONTANA
CITY           SKY/WX    TMP DP  RH WIND       PRES   REMARKS
GLASGOW        PTCLDY    34  19  54 W7        30.06S WCI  28
GLENDIVE       MOCLDY    30  16  56 W7        30.07S WCI  23
JORDAN         CLEAR     27  21  78 W10       30.08S WCI  18
SIDNEY         CLEAR     30  19  64 W9        30.07S WCI  22
WOLF POINT     CLOUDY    30  21  69 CALM      30.06F
* BEAVER HILL  N/A       33  16  50 W9         N/A   WCI  25
* CIRCLE       N/A       35  20  54 W1G7       N/A
* LINDSAY DVD  N/A       35  17  48 W9G14      N/A   WCI  28
* NAVAJO       N/A       25  19  78 NW11       N/A   WCI  14
* SACO         N/A       32  19  59 SE8        N/A   WCI  25
$$

MTZ028>042-056>058-060800-
SOUTHCENTRAL AND SOUTHEAST MONTANA
CITY           SKY/WX    TMP DP  RH WIND       PRES   REMARKS
BAKER          CLOUDY    32  16  52 SW12      30.06F WCI  23
BILLINGS       PTCLDY    37  14  39 SW17      30.14F WCI  27
LIVINGSTON     PTCLDY    41  12  30 SW30G44   30.17F
MILES CITY     MOCLDY    30  16  56 N/A       30.09S
* LAUREL APT   PTCLDY    34  12  40 N/A        N/A
* ROUNDUP APT  MOCLDY    37  12  36 N/A        N/A
* ALZADA       N/A       29  20  69 W2         N/A
* HYSHAM       N/A       37   9  31 W4         N/A
* LAME DEER    N/A       35  17  48 W8         N/A   WCI  28
* REED POINT   N/A       45  15  30 W9G14      N/A
$$

REGIONAL REPORTS...DAKOTAS
CITY           SKY/WX    TMP DP  RH WIND       PRES   REMARKS
WILLISTON      PTCLDY    27  18  69 NW5       30.04S WCI  21
DICKINSON      PTCLDY    25  12  58 W10       30.00S WCI  15
CROSBY         CLEAR     19  16  88 NW9       30.03S WCI   8
WATFORD CITY   CLEAR     23  18  81 W5        30.02R WCI  16
BISMARCK       MOCLDY    27  14  58 W9        30.01F WCI  18
GRAND FORKS    PTCLDY    16   9  74 S6        29.96S WCI   7
FARGO          CLOUDY    18   9  68 S15       30.01F WCI   4
BUFFALO SD     CLEAR     27  14  58 W10       30.00F WCI  18
RAPID CITY     MOCLDY    30  16  56 W3        30.11F
$$

REGIONAL REPORTS...WYOMING/IDAHO/WASHINGTON
CITY           SKY/WX    TMP DP  RH WIND       PRES   REMARKS
GILLETTE       CLEAR     34  18  52 SW14      30.13S WCI  24
SHERIDAN       PTCLDY    25  16  69 CALM      30.14F
CODY           PTCLDY    41  10  28 W16G30    30.17F
YELLOWSTONE LA PTCLDY     7   1  76 CALM      30.33F
SALMON         PTCLDY    25  16  69 CALM      30.36R
MULLAN PASS    PTCLDY    28  14  56 VRB3      30.28S
SAND POINT     PTCLDY    28  23  81 CALM      30.35S
SPOKANE        PTCLDY    37  21  52 S6        30.32S WCI  32

$$




USA.gov is the U.S. government's official web portal to all federal, state and local government web resources and services.